(72595) = 2001 FW7

Discovered at Socorro on 2001-03-20 by LINEAR.

Orbit

Orbit type: Main Belt

Note: WebGL enabled browser required.

epoch2024-03-31.0
epoch JD2460400.5
perihelion date2021-01-11.88437
perihelion JD2459226.38437
argument of perihelion (°)226.51691
ascending node (°)274.17706
inclination (°)16.95135
eccentricity0.1915555
perihelion distance (AU)2.0476254
Tisserand w.r.t. Jupiter3.4
ΔV w.r.t. Earth (km/sec)10.3
semimajor axis (AU)2.5327965
mean anomaly (°)287.08749
mean daily motion (°/day)0.24451380
aphelion distance (AU)3.018
period (years)4.03
P-vector [x]-0.74233291
P-vector [y]0.66744639
P-vector [z]0.05879767
Q-vector [x]-0.60364380
Q-vector [y]-0.62811775
Q-vector [z]-0.49100127
absolute magnitude14.96
phase slope0.15
uncertainty0
referenceMPEC 2024-D124
observations used1527
oppositions19
arc length (days)8830
first opposition used1999
last opposition used2023
residual rms (arc-secs)0.69
perturbers coarse indicatorM-v
perturbers precise indicator003Ek
first observation date used1999-10-14.0
last observation date used2023-12-17.0
computer nameMPCLINUX
JD of orbit computation2456909.256662
perihelion JD uncertainty (days)9.9281E-05
argument of perihelion uncertainty (°)4.7208E-05
ascending node uncertainty (°)4.0392E-05
inclination uncertainty (°)5.2090E-06
eccentricity uncertainty 1.0338E-07
perihelion distance uncertainty (AU)2.6497E-07
Minimum Orbit Intersection Distances (in AU)
for orbit epoch: 2460400.5, reference: E2024-DC4
Mercury1.72611
Venus1.36083
Earth1.09619
Mars0.51798
Jupiter2.19715
Saturn6.78297
Uranus16.4419
Neptune27.1314

Observations

1581 total observations over interval: 1999 10 14.16845 – 2023 12 17.101652
These data are available for download (format description).

Date (UT) J2000 RA J2000 Dec Magn Location Ref
1999 10 14.16845 00 32 48.86 +31 19 41.5 18.7   704 – Lincoln Laboratory ETS, New Mexico MPS 35791
1999 10 14.18402 00 32 47.89 +31 19 35.0 18.9   704 – Lincoln Laboratory ETS, New Mexico MPS 35791
1999 10 14.19961 00 32 47.00 +31 19 28.3 19.1   704 – Lincoln Laboratory ETS, New Mexico MPS 35791
1999 10 14.21518 00 32 46.07 +31 19 21.6 19.2   704 – Lincoln Laboratory ETS, New Mexico MPS 35791
1999 10 14.23076 00 32 45.11 +31 19 14.7 18.9   704 – Lincoln Laboratory ETS, New Mexico MPS 35791
1999 10 14.23531 00 32 44.81 +31 19 12.4 18.6   704 – Lincoln Laboratory ETS, New Mexico MPS 35791
1999 10 14.25075 00 32 43.86 +31 19 05.9 18.8   704 – Lincoln Laboratory ETS, New Mexico MPS 35791
1999 10 14.26619 00 32 42.94 +31 18 59.5 19.0   704 – Lincoln Laboratory ETS, New Mexico MPS 35791
1999 10 14.28174 00 32 41.99 +31 18 53.6 18.8   704 – Lincoln Laboratory ETS, New Mexico MPS 35791
1999 10 14.29717 00 32 41.11 +31 18 46.4 19.1   704 – Lincoln Laboratory ETS, New Mexico MPS 35791
2001 01 24.40518 11 46 51.76 -23 22 43.0 18.6   704 – Lincoln Laboratory ETS, New Mexico MPS 30837
2001 01 24.42047 11 46 51.92 -23 22 56.0 19.0   704 – Lincoln Laboratory ETS, New Mexico MPS 30837
2001 01 24.43544 11 46 51.96 -23 23 10.5 19.1   704 – Lincoln Laboratory ETS, New Mexico MPS 30837
2001 01 24.45074 11 46 51.95 -23 23 22.8 19.3   704 – Lincoln Laboratory ETS, New Mexico MPS 30837
2001 01 24.46604 11 46 52.13 -23 23 37.4 19.2   704 – Lincoln Laboratory ETS, New Mexico MPS 30837
2001 03 20.24403 11 13 46.20 -28 51 33.2 17.9   704 – Lincoln Laboratory ETS, New Mexico MPS 28213
2001 03 20.25638 11 13 45.46 -28 51 29.2 17.8   704 – Lincoln Laboratory ETS, New Mexico MPS 28213
2001 03 20.26983 11 13 44.72 -28 51 25.0 18.1   704 – Lincoln Laboratory ETS, New Mexico MPS 28213
2001 03 20.28217 11 13 44.06 -28 51 21.1 19.0   704 – Lincoln Laboratory ETS, New Mexico MPS 28213
2001 03 20.29495 11 13 43.25 -28 51 17.3 18.5   704 – Lincoln Laboratory ETS, New Mexico MPS 28213
2001 03 21.23681 11 12 51.75 -28 46 08.6 18.0   704 – Lincoln Laboratory ETS, New Mexico MPS 28213
2001 03 21.24958 11 12 50.87 -28 46 04.7 18.7   704 – Lincoln Laboratory ETS, New Mexico MPS 28213
2001 03 21.26194 11 12 50.30 -28 46 00.2 17.7   704 – Lincoln Laboratory ETS, New Mexico MPS 28213
2001 03 21.27452 11 12 49.61 -28 45 55.2 18.6   704 – Lincoln Laboratory ETS, New Mexico MPS 28213
2001 03 21.28773 11 12 48.79 -28 45 51.4 17.3   704 – Lincoln Laboratory ETS, New Mexico MPS 28213
2001 03 23.23582 11 11 04.78 -28 34 07.6 17.8   704 – Lincoln Laboratory ETS, New Mexico MPS 28213
2001 03 23.24797 11 11 04.05 -28 34 03.4 18.6   704 – Lincoln Laboratory ETS, New Mexico MPS 28213
2001 03 23.26007 11 11 03.51 -28 33 58.2 17.8   704 – Lincoln Laboratory ETS, New Mexico MPS 28213
2001 03 23.27244 11 11 02.80 -28 33 53.5 17.5   704 – Lincoln Laboratory ETS, New Mexico MPS 28213
2001 03 23.28539 11 11 02.08 -28 33 48.4 18.1   704 – Lincoln Laboratory ETS, New Mexico MPS 28213
2001 03 24.24102 11 10 12.67 -28 27 33.3 17.5   704 – Lincoln Laboratory ETS, New Mexico MPS 28213
2001 03 24.25571 11 10 11.91 -28 27 27.1 19.0   704 – Lincoln Laboratory ETS, New Mexico MPS 28213
2001 03 24.27025 11 10 11.13 -28 27 21.7 19.1   704 – Lincoln Laboratory ETS, New Mexico MPS 28213
2001 03 24.29598 11 10 09.68 -28 27 10.5 18.4   704 – Lincoln Laboratory ETS, New Mexico MPS 28213
2001 04 01.20974 11 04 08.37 -27 24 32.7 17.5 R 699 – Lowell Observatory-LONEOS MPS 28213
2001 04 01.22541 11 04 07.64 -27 24 24.5   699 – Lowell Observatory-LONEOS MPS 28213
2001 04 01.24111 11 04 07.03 -27 24 15.4   699 – Lowell Observatory-LONEOS MPS 28213
2001 04 01.25687 11 04 06.33 -27 24 06.7   699 – Lowell Observatory-LONEOS MPS 28213
2001 04 21.21679 10 57 23.71 -24 00 29.1 18.9   704 – Lincoln Laboratory ETS, New Mexico MPS 30228
2001 04 21.23068 10 57 23.78 -24 00 19.6 18.1   704 – Lincoln Laboratory ETS, New Mexico MPS 30228
2001 04 21.25895 10 57 23.64 -24 00 01.1 18.8   704 – Lincoln Laboratory ETS, New Mexico MPS 30228
2002 06 24.31689 20 11 48.15 -11 57 17.9 19.2   644 – Palomar Mountain/NEAT MPS 58886
2002 06 24.33539 20 11 47.25 -11 57 13.9 19.2   644 – Palomar Mountain/NEAT MPS 58886
2002 06 24.35978 20 11 46.09 -11 57 08.9 19.4   644 – Palomar Mountain/NEAT MPS 58886
2002 07 01.28163 20 05 56.48 -11 35 14.7 20.0   644 – Palomar Mountain/NEAT MPS 58886
2002 07 01.36589 20 05 51.81 -11 35 00.1 19.5   644 – Palomar Mountain/NEAT MPS 58886
2002 07 01.42803 20 05 48.38 -11 34 49.2 19.6   644 – Palomar Mountain/NEAT MPS 58886
2002 07 03.39521 20 04 00.71 -11 29 19.2 19.3   644 – Palomar Mountain/NEAT MPS 58886
2002 07 03.40579 20 04 00.11 -11 29 17.4 19.2   644 – Palomar Mountain/NEAT MPS 58886
2002 07 03.41749 20 03 59.41 -11 29 15.5 19.3   644 – Palomar Mountain/NEAT MPS 58886
2002 07 09.31760 19 58 19.97 -11 14 35.0 19.1   704 – Lincoln Laboratory ETS, New Mexico MPS 58886
2002 07 09.34276 19 58 18.53 -11 14 31.9 19.2   704 – Lincoln Laboratory ETS, New Mexico MPS 58886
2002 07 09.35539 19 58 17.72 -11 14 29.8 19.2   704 – Lincoln Laboratory ETS, New Mexico MPS 58886
2002 07 21.17327 19 46 22.38 -10 53 13.8 18.9   644 – Palomar Mountain/NEAT MPS 58886
2002 07 21.19488 19 46 21.06 -10 53 11.9 19.5   644 – Palomar Mountain/NEAT MPS 58886
2002 07 21.21585 19 46 19.76 -10 53 10.5 19.7   644 – Palomar Mountain/NEAT MPS 58886
2003 08 28.47806 00 57 41.47 +31 03 54.9 18.9   644 – Palomar Mountain/NEAT MPS 83313
2003 08 28.48958 00 57 41.20 +31 03 58.6 19.0   644 – Palomar Mountain/NEAT MPS 83313
2003 08 28.50280 00 57 40.89 +31 04 02.6 18.9   644 – Palomar Mountain/NEAT MPS 83313
2003 09 29.25974 00 34 55.77 +31 35 36.5 18.5 R 699 – Lowell Observatory-LONEOS MPS 86165
2003 09 29.27822 00 34 54.67 +31 35 33.1   699 – Lowell Observatory-LONEOS MPS 86165
2003 09 29.29663 00 34 53.55 +31 35 29.0   699 – Lowell Observatory-LONEOS MPS 86165
2003 09 29.31502 00 34 52.46 +31 35 24.6   699 – Lowell Observatory-LONEOS MPS 86165
2003 10 22.20061 00 13 25.00 +29 02 24.0 19.2   704 – Lincoln Laboratory ETS, New Mexico MPS 87909
2003 10 22.21211 00 13 24.43 +29 02 18.0 19.1   704 – Lincoln Laboratory ETS, New Mexico MPS 87909
2003 10 22.22369 00 13 23.79 +29 02 12.0 19.6   704 – Lincoln Laboratory ETS, New Mexico MPS 87909
2003 10 22.23509 00 13 23.26 +29 02 04.9 19.6   704 – Lincoln Laboratory ETS, New Mexico MPS 87909
2003 10 22.24674 00 13 22.64 +29 01 58.9 19.4   704 – Lincoln Laboratory ETS, New Mexico MPS 87909
2003 10 28.81780 00 08 31.58 +27 58 21.5 18.4 R A35 – Hormersdorf Observatory MPS 89360
2003 10 28.82141 00 08 31.36 +27 58 19.7 18.6 R A35 – Hormersdorf Observatory MPS 89360
2003 10 28.82502 00 08 31.24 +27 58 17.2 18.5 R A35 – Hormersdorf Observatory MPS 89360
2003 11 03.19556 00 05 19.46 +27 03 28.4 19.0   704 – Lincoln Laboratory ETS, New Mexico MPS 90831
2003 11 03.20765 00 05 19.18 +27 03 21.3 19.0   704 – Lincoln Laboratory ETS, New Mexico MPS 90831
2003 11 03.21949 00 05 18.78 +27 03 13.7 18.8   704 – Lincoln Laboratory ETS, New Mexico MPS 90831
2003 11 21.08155 00 00 31.28 +24 03 05.5 19.4   644 – Palomar Mountain/NEAT MPS 91609
2003 11 21.10468 00 00 31.24 +24 02 52.3 19.2   644 – Palomar Mountain/NEAT MPS 91609
2003 11 21.12601 00 00 31.19 +24 02 40.5 19.1   644 – Palomar Mountain/NEAT MPS 91609
2003 11 21.16045 00 00 31.19 +24 02 20.5 18.7 C 704 – Lincoln Laboratory ETS, New Mexico MPS 292217
2003 11 21.17262 00 00 30.98 +24 02 13.3 19.1 C 704 – Lincoln Laboratory ETS, New Mexico MPS 292217
2003 11 21.19431 00 00 30.94 +24 02 01.2 17.9 C 704 – Lincoln Laboratory ETS, New Mexico MPS 292217
2003 11 21.20516 00 00 31.00 +24 01 57.0 18.4 C 704 – Lincoln Laboratory ETS, New Mexico MPS 292217
2003 11 21.20576 00 00 31.03 +24 01 55.1 19.6   704 – Lincoln Laboratory ETS, New Mexico MPS 91609
2003 11 21.22553 00 00 30.96 +24 01 45.0 19.8   704 – Lincoln Laboratory ETS, New Mexico MPS 91609
2003 11 21.23951 00 00 30.90 +24 01 36.2 19.6   704 – Lincoln Laboratory ETS, New Mexico MPS 91609
2003 12 19.13258 00 11 02.25 +20 41 51.5 19.6   704 – Lincoln Laboratory ETS, New Mexico MPS 94376
2003 12 19.14573 00 11 02.72 +20 41 47.6 19.9   704 – Lincoln Laboratory ETS, New Mexico MPS 94376
